METEOSAT-11 (MSG-4)     
1 40732U 15034A   19265.36256522 -.00000004  00000-0  00000+0 0  9997
2 40732   0.8504 251.6180 0002404 251.7683 348.7313  1.00281100 15378
STAR ONE C4             
1 40733U 15034B   19265.56381846 -.00000273  00000-0  00000+0 0  9996
2 40733   0.0118 295.7814 0001521 291.5211 266.8098  1.00269751 15360
ARIANE 5 R/B            
1 40734U 15034C   19264.46624882  .00000450  00000-0  36508-3 0  9997
2 40734   3.8367 166.6218 7251075   3.2534 359.7059  2.30390281 35038
ARIANE 5 DEB [SYLDA]    
1 40735U 15034D   19264.54577359  .00005530  00000-0  18863-2 0  9990
2 40735   3.9668  87.3072 6953658 164.4125 239.4504  2.69004316 38633
MSG 4 DEB [COOLER COVER]
1 40989U 15034E   19265.38616507  .00000065  00000-0  00000+0 0  9992
2 40989   1.4066 159.3816 0030595 146.0829 214.3547  1.01533236 15369
MSG 4 DEB [BAFFLE COVER]
1 40990U 15034F   19264.29433190 -.00000167  00000-0  00000+0 0  9992
2 40990   1.3890 160.5988 0084421  73.3249 287.8615  1.02654993 15618